Back to catalog

TJS-23

AliveCommunicationsGEO
NORAD 67226·PAYLOAD·🇨🇳 China

Launched Dec 20, 2025 from Wenchang Space Launch Site

Loading…

TLE

FreshSource: Space-Track

Epoch: Sep 14, 2026, 08:32 UTC

1 67226U 25306A   26257.35558780  .00000006  00000-0  00000-0 0  9998
2 67226   5.3917 297.0603 0004620 251.6896 108.1071  1.00274356  2789

Track TJS-23 in real time with AllMySat

Download on the App Store